Location: Bratislava
(0.0000°N, 17.1167°E)
Time: 04:54:48
(UTC+01:00)

CZ-2C R/B - Pass Details

Date: 24 January 2021
Orbit: 704 x 908 km, 98.1° (Epoch: 06 March)

Event Time Altitude Azimuth Distance (km) Brightness Sun altitude
Rises 18:54:33 0° 175° (S) 3,156 6.4 -12.0°
Reaches altitude 10° 18:56:48 10° 179° (S) 2,254 5.7 -12.5°
Maximum altitude 19:01:41 60° 258° (WSW) 876 3.6 -13.7°
Drops below altitude 10° 19:06:49 10° 338° (NNW) 2,368 5.6 -14.9°
Sets 19:09:14 0° 342° (NNW) 3,329 6.3 -15.5°
